Location: Unspecified
(40.7945°N, 111.1337°W)
Time: 16:15:10
(UTC-06:00)

Resurs 1-4 Rocket - Pass Details

Date: 31 March 2019
Orbit: 800 x 814 km, 98.6° (Epoch: 12 October)

Event Time Altitude Azimuth Distance (km) Brightness Sun altitude
Rises 03:52:20 0° 6° (N) 3,327 5.9 -34.4°
Reaches altitude 10° 03:54:47 10° 359° (N) 2,390 5.0 -34.1°
Enters shadow 03:56:56 23° 346° (NNW) 1,645 3.9 -33.8°
